Location: ??????????
(41.2581°N, 22.8006°E)
Time: 01:49:37
(UTC+00:00)

NOSS 7 (H) - Pass Details

Date: 13 December 2025
Orbit: 367 x 1495 km, 63.3° (Epoch: 17 January)

Event Time Altitude Azimuth Distance (km) Brightness Sun altitude
Rises 15:44:50 0° 327° (NNW) 2,221 8.0 -8.3°
Reaches altitude 10° 15:46:45 10° 331° (NNW) 1,389 7.0 -8.6°
Maximum altitude 15:49:42 66° 54° (NE) 445 4.1 -9.2°
Drops below altitude 10° 15:53:07 10° 138° (SE) 1,606 7.0 -9.7°
Sets 15:55:29 0° 141° (SE) 2,619 8.1 -10.2°
